Theta_e
312 313 313 314 313 313 312 312 311 311 312 312 311 311 312 315 308 305 313 315 314 314 315 317 319 321 323 321 323 325 326 326 330 337 343 345 347 351 351 351 350 349 348 348 350 350 349 348 346 345 342 341 342 343 339 340 336 337 341 343 342 340 340 339 339 339 339 340 339 339 338 339 338 338 338 338 337 337 336 334 333 331 332 332 334 334 335
312 312 312 313 312 312 312 312 312 312 312 311 312 312 313 313 314 314 314 319 316 317 319 319 322 324 324 324 326 326 327 324 328 331 341 343 345 348 349 350 350 350 350 351 351 351 348 347 345 343 341 342 341 340 337 337 340 339 343 344 344 342 339 339 340 341 340 340 339 339 339 338 338 338 337 337 336 335 334 333 334 334 335 335 333 333 333
310 311 312 313 312 312 310 312 312 313 313 312 312 313 313 315 313 313 314 315 314 320 323 321 323 328 326 325 322 322 324 324 324 328 334 342 343 345 349 350 350 351 352 353 352 349 347 346 345 342 342 343 344 336 335 336 340 341 342 345 344 343 341 340 340 341 341 340 340 339 339 339 338 338 338 337 337 335 334 334 335 336 335 333 332 333 333
307 311 312 311 312 312 310 310 311 312 311 310 311 311 314 313 312 314 314 313 312 320 322 321 324 325 324 323 323 323 323 323 327 329 330 336 342 343 347 349 351 351 352 353 351 349 346 347 345 343 344 340 339 338 335 336 338 340 342 344 344 344 342 341 340 340 339 339 339 338 339 339 339 339 338 337 336 335 334 333 334 334 333 333 334 334 335
306 310 312 310 310 309 306 308 310 312 313 314 314 314 316 315 315 313 310 311 317 319 322 321 323 322 321 321 321 323 326 330 335 335 334 334 339 343 346 348 349 350 351 352 352 349 347 345 344 345 344 339 341 340 339 341 341 341 341 342 345 344 342 341 340 340 340 339 338 338 339 339 339 338 338 336 335 334 332 333 334 334 334 333 333 335 335
306 309 310 311 306 299 301 314 316 315 312 313 311 311 313 317 318 316 317 317 320 320 319 319 319 319 321 324 328 333 335 332 332 334 335 336 339 343 344 347 348 351 352 351 351 350 347 347 345 345 345 343 345 343 340 342 340 342 344 344 344 343 342 341 340 340 339 339 338 339 339 339 339 338 337 336 334 333 332 333 334 333 333 332 332 333 333
305 309 309 304 300 301 315 317 317 317 316 315 313 314 315 317 320 319 317 318 318 320 320 321 322 324 325 326 329 330 331 335 331 332 337 339 340 343 345 346 347 350 351 352 352 349 347 345 345 343 343 345 345 343 342 341 341 342 343 344 343 343 341 341 340 339 338 338 338 339 339 339 339 338 337 336 334 333 332 331 332 334 332 331 332 332 331
310 307 307 298 301 315 317 319 319 320 319 317 315 313 315 317 317 320 317 318 319 321 321 321 323 324 325 327 329 333 334 333 333 331 336 339 340 343 345 347 349 350 350 351 350 349 348 345 342 342 343 344 342 342 343 341 341 344 344 343 342 341 339 340 339 339 338 339 339 339 339 339 338 337 337 336 334 334 333 332 334 333 332 332 330 330 331
304 306 306 307 317 312 316 315 316 317 314 315 313 308 313 318 319 319 318 320 320 321 321 322 322 325 325 322 322 330 333 336 335 334 336 337 340 343 346 347 348 351 352 352 351 350 347 344 343 341 342 342 342 341 341 338 341 342 343 343 342 340 339 338 339 339 339 338 339 339 339 338 339 338 336 335 334 335 333 332 332 331 331 330 332 330 332
310 306 305 306 306 301 310 318 319 320 319 319 319 316 312 320 320 321 321 321 321 321 320 321 323 328 320 314 316 325 331 335 336 337 337 338 342 346 346 349 349 352 352 352 352 348 346 345 344 343 342 343 344 342 341 339 338 340 342 341 341 340 338 338 339 339 340 339 339 338 339 337 337 337 335 335 334 334 331 330 329 331 331 331 333 333 331
309 307 302 302 301 304 314 317 318 320 321 319 320 314 309 318 319 320 321 320 321 320 319 321 324 320 313 313 320 330 333 332 333 336 335 337 342 345 346 347 349 350 352 352 351 350 348 345 345 346 345 343 342 342 340 337 337 339 341 341 340 339 339 339 339 339 339 339 339 337 337 337 337 335 335 335 334 334 332 333 333 333 332 331 331 332 329
309 308 305 303 307 306 316 317 319 321 322 321 317 303 305 317 319 321 321 320 319 320 322 321 322 319 314 314 325 328 331 330 333 339 338 341 343 346 347 350 353 354 354 353 350 348 346 348 350 349 346 343 341 340 340 338 336 337 340 341 341 341 341 340 339 340 340 340 340 338 337 337 337 336 336 334 333 333 332 331 330 331 330 330 329 330 332
307 305 306 308 310 317 317 318 321 321 321 318 307 300 309 318 321 321 322 320 320 322 322 323 318 323 323 325 331 329 329 330 335 339 341 343 344 345 344 347 351 353 352 350 348 347 349 351 350 349 346 346 344 344 345 344 340 338 340 343 343 342 342 339 339 340 341 341 339 338 337 336 336 336 335 334 335 334 330 330 330 331 330 330 329 330 331
305 306 304 305 309 316 319 321 320 321 316 305 305 318 325 322 321 323 322 321 322 322 323 323 324 324 325 327 327 329 328 332 338 338 341 342 343 342 345 349 350 351 347 350 349 347 351 352 351 349 350 349 348 347 345 344 345 343 343 343 343 343 343 341 339 339 340 342 340 338 338 338 337 336 336 336 335 333 330 332 332 331 332 331 330 330 331
308 308 304 301 296 319 321 318 318 319 310 315 323 326 324 322 323 322 323 322 324 324 323 324 326 326 323 326 327 329 331 334 336 336 337 339 337 339 346 346 347 342 343 343 340 340 341 343 347 350 350 349 349 347 345 347 347 346 344 343 343 343 343 341 342 340 341 340 339 338 338 338 336 336 338 338 337 337 335 333 331 330 331 331 330 329 331
304 304 300 300 314 319 320 319 314 316 320 325 328 324 321 324 323 323 323 323 324 325 327 328 326 326 326 328 328 331 332 335 335 336 338 339 339 342 337 336 339 336 341 340 337 337 334 339 343 348 349 348 348 347 346 349 348 348 346 344 344 344 344 344 343 341 340 339 339 339 339 338 337 337 337 338 338 337 336 332 331 330 329 330 332 329 327
313 309 314 319 322 321 321 323 322 325 325 325 324 325 322 322 322 326 323 324 325 327 327 330 329 326 327 328 329 331 334 334 334 336 337 336 337 335 332 333 337 337 338 341 340 341 345 348 350 351 350 346 346 345 347 348 347 346 346 344 343 344 344 344 343 341 340 339 338 338 338 338 337 336 337 338 336 337 335 334 332 330 330 331 329 330 327
320 321 321 322 322 322 321 321 323 322 322 325 325 326 325 328 329 329 326 327 327 327 329 330 329 327 328 327 329 333 333 334 338 340 339 338 337 333 334 339 340 338 336 338 340 342 347 349 348 347 346 345 343 344 346 346 346 345 345 344 343 344 345 342 341 341 339 337 338 338 338 338 336 337 334 335 335 332 332 333 329 330 329 331 329 327 326
312 307 318 319 318 318 320 321 323 324 324 325 327 330 331 330 330 330 332 333 333 332 332 331 331 328 329 330 331 333 335 336 340 340 340 340 338 337 339 343 341 338 337 334 335 336 338 343 345 343 346 346 346 346 345 344 344 346 346 345 344 344 342 339 341 340 338 336 335 338 339 337 333 333 334 335 334 333 332 330 327 327 329 327 326 324 331
312 316 318 319 318 321 322 321 320 318 321 324 327 328 330 331 331 331 332 332 330 331 330 331 331 330 329 331 334 334 336 340 341 341 341 340 341 343 344 342 341 340 338 337 337 339 340 342 343 341 338 337 337 340 339 337 337 343 344 344 343 343 342 341 339 338 337 336 336 335 335 332 331 334 336 336 334 330 329 328 326 327 328 326 326 327 327
316 319 319 318 320 320 319 319 319 320 322 325 326 327 328 329 329 331 332 333 332 331 331 334 334 331 332 332 337 333 331 333 336 339 339 342 343 342 341 341 342 343 340 339 339 336 340 340 339 338 337 336 332 331 331 336 339 337 340 341 342 341 340 339 336 336 335 337 338 334 332 332 334 332 330 336 335 331 327 328 329 331 328 325 325 326 325
312 312 318 318 311 311 318 316 317 320 324 324 325 326 326 327 328 330 328 329 331 331 332 334 333 333 333 333 336 329 329 332 336 339 342 342 341 341 341 341 341 339 338 337 336 336 339 338 337 338 337 336 337 332 331 331 335 336 339 340 339 337 333 332 333 333 334 333 333 332 333 332 330 321 306 298 308 332 322 306 301 301 308 323 319 324 323
309 314 317 319 320 319 318 318 319 322 325 323 321 322 323 324 326 327 328 326 328 328 330 333 335 334 335 335 334 331 331 333 337 339 338 337 335 334 335 336 336 337 336 336 337 335 338 337 336 335 335 334 336 335 335 337 336 337 338 336 333 331 330 330 329 331 330 335 329 333 330 330 330 328 323 316 297 297 304 304 299 295 294 295 298 301 315
315 316 316 318 317 315 317 318 319 321 326 321 319 319 321 322 323 325 329 330 328 329 329 329 332 336 336 335 333 335 332 335 336 336 335 334 333 333 333 335 335 336 336 336 337 336 338 335 335 335 333 334 336 333 334 336 337 337 337 335 333 331 329 329 335 332 331 329 331 330 329 330 332 331 326 322 315 298 295 298 298 295 294 294 294 295 296
312 315 316 317 317 317 318 319 319 320 325 322 319 319 320 320 321 323 325 329 332 328 328 329 330 333 330 330 331 332 336 335 335 335 334 334 332 329 328 332 335 336 337 336 337 336 337 336 335 335 332 334 336 333 336 334 335 335 335 335 333 331 332 331 333 333 332 332 331 329 329 330 331 327 329 324 321 315 309 296 294 294 295 295 294 296 296
315 315 315 316 317 317 319 318 318 320 320 320 320 320 322 323 322 323 323 327 327 328 326 325 325 329 331 331 330 330 333 332 335 335 333 330 327 328 329 333 335 337 336 335 335 334 335 334 335 334 333 333 334 336 332 334 334 334 335 334 334 334 332 333 332 333 330 331 331 331 330 331 334 328 327 325 323 320 316 314 312 303 296 294 295 294 294
313 314 313 311 312 314 316 315 315 318 317 318 319 320 320 321 322 322 322 323 324 326 326 326 327 329 330 330 331 333 332 336 334 331 329 328 326 328 329 333 334 334 334 334 335 333 332 332 332 332 332 332 336 336 333 333 335 335 334 334 333 331 331 331 329 328 328 329 329 332 328 332 332 330 328 328 328 324 322 318 317 317 314 313 300 293 306
311 311 311 308 308 310 313 315 317 316 317 316 319 318 318 319 319 318 318 319 321 324 324 325 326 329 331 332 333 332 332 332 327 327 331 326 326 330 332 334 333 333 332 333 334 332 334 334 332 332 333 335 336 334 332 335 335 334 332 332 331 330 330 331 333 332 331 330 329 330 331 331 333 329 329 328 327 325 324 323 323 320 318 317 316 306 298
310 311 313 314 315 316 317 317 318 317 317 319 319 318 317 316 316 316 317 318 320 321 322 324 326 328 327 329 329 328 329 328 326 329 330 330 330 331 333 332 332 330 331 331 333 334 334 334 333 332 332 334 333 333 332 332 332 331 330 329 329 329 329 330 331 330 330 331 331 330 328 328 328 328 327 327 328 329 328 325 324 323 321 317 315 312 309
312 315 314 315 315 315 314 313 314 315 315 317 316 316 315 315 314 314 316 317 318 318 320 322 326 327 327 326 326 325 326 326 327 331 332 331 331 332 331 332 330 331 331 331 333 334 334 332 331 330 331 331 331 332 331 332 330 331 330 332 332 331 332 330 330 331 330 328 328 325 328 326 327 327 325 324 324 322 321 320 319 320 318 316 314 313 314
314 316 314 314 313 314 313 314 316 316 316 317 318 317 317 317 315 314 315 317 319 318 321 321 325 327 327 327 326 326 325 324 328 334 333 333 333 334 332 330 327 327 329 330 331 331 331 329 328 328 330 329 328 329 330 330 329 329 330 330 330 322 319 321 322 325 328 326 327 327 326 325 327 326 322 320 319 319 318 319 319 317 315 313 311 312 312
313 313 313 313 313 313 314 315 317 317 317 317 316 315 316 316 316 317 316 316 317 317 320 321 323 325 327 329 328 328 328 334 335 334 332 332 332 334 334 331 331 331 331 330 330 328 329 328 327 329 330 328 328 328 329 329 329 327 327 326 327 326 323 320 323 324 325 325 325 326 328 322 321 322 321 318 317 316 317 316 315 316 316 314 313 309 309
313 312 313 315 316 316 316 317 316 315 315 314 315 316 316 316 316 316 316 317 316 318 318 321 323 327 330 329 330 332 334 335 333 332 331 332 332 332 332 331 331 331 329 328 329 328 326 326 326 327 328 327 326 326 326 326 326 326 326 327 327 326 324 321 320 323 324 324 322 323 322 321 321 320 318 317 316 316 315 314 315 314 314 311 310 308 306
314 314 314 315 315 313 313 313 315 315 315 315 316 316 316 316 317 318 318 320 318 318 320 322 323 323 326 329 332 332 331 330 329 329 330 331 330 331 330 329 329 328 327 327 327 326 325 325 326 326 325 325 325 324 324 324 326 326 327 327 327 324 324 323 324 324 323 321 321 321 320 320 319 319 317 319 318 319 317 315 314 313 309 308 308 308 302
316 315 315 314 314 314 314 313 314 314 314 314 314 315 316 317 319 319 321 320 320 320 322 321 321 321 325 329 330 327 323 326 329 330 330 329 329 329 328 327 326 326 324 324 324 324 326 326 326 325 324 324 324 324 324 325 327 327 327 326 326 323 322 321 321 322 321 320 320 318 318 318 318 317 319 319 316 316 315 313 312 311 310 309 308 308 306
313 313 313 313 314 314 313 313 314 315 315 315 315 315 316 317 318 319 319 319 320 321 323 322 322 321 322 328 329 328 327 327 330 330 329 328 328 328 327 326 324 323 322 321 323 324 325 325 320 322 323 323 322 323 324 324 324 324 325 323 322 321 321 319 320 319 320 320 318 318 316 316 316 316 315 316 315 313 311 310 309 310 309 309 309 307 307
316 315 316 316 317 317 317 317 318 318 318 318 318 318 318 319 319 321 319 319 321 322 323 322 322 322 322 324 326 326 328 329 328 327 327 327 326 326 324 322 322 321 321 318 321 325 324 322 321 322 323 322 322 322 322 321 323 323 323 321 320 319 318 318 318 318 318 318 316 316 314 312 312 311 312 311 311 312 310 309 309 309 309 309 308 308 307
316 316 317 317 317 318 318 318 319 320 319 319 319 319 320 320 321 322 320 321 322 322 323 322 322 323 326 328 327 326 326 326 326 325 325 325 324 323 321 321 319 319 317 319 322 323 322 321 321 323 322 321 321 321 321 320 320 321 320 319 319 319 317 317 317 316 316 316 315 313 312 312 312 313 312 312 312 310 309 309 309 308 308 308 308 307 306
316 317 318 318 318 319 319 319 320 320 319 319 319 320 321 321 321 321 322 321 322 325 325 325 325 326 326 326 324 324 323 323 324 323 322 322 323 322 322 322 323 326 322 322 320 320 320 321 323 322 321 319 319 319 319 319 319 320 319 319 317 317 315 315 313 314 314 314 312 312 312 311 311 310 309 310 309 309 309 308 308 309 308 307 306 305 305
315 316 317 317 318 319 319 319 318 319 319 319 319 319 320 320 321 321 322 324 326 327 326 326 326 324 324 324 323 322 323 323 323 323 322 323 322 321 319 319 320 322 323 320 321 320 321 321 321 320 319 319 318 317 316 316 316 316 315 314 314 313 312 311 311 310 310 310 310 309 309 309 309 308 308 309 308 308 309 308 306 307 307 307 307 306 306
316 316 317 317 317 318 318 318 318 319 318 319 319 323 325 327 327 326 325 325 326 326 327 328 327 325 324 323 322 320 321 321 321 321 321 320 319 317 315 314 319 322 321 321 321 319 319 321 320 317 318 317 316 317 317 316 315 316 316 315 315 313 312 312 312 312 312 311 311 309 310 310 310 309 308 308 307 308 307 307 307 307 307 306 306 306 306
317 318 317 318 319 320 321 321 320 319 319 321 322 323 323 325 326 325 326 326 326 327 327 326 324 324 321 322 320 320 320 320 320 320 320 319 318 317 314 314 318 319 319 319 318 317 318 317 318 317 316 316 315 312 313 314 314 315 315 314 314 314 313 313 312 311 311 311 311 309 309 309 308 307 307 307 306 307 307 307 307 306 306 306 306 306 306
317 318 316 315 316 317 319 319 319 320 322 323 323 323 322 324 324 324 323 324 324 323 322 322 321 321 321 320 319 319 319 319 319 319 319 320 321 320 317 316 319 321 319 319 318 319 316 317 316 313 312 312 310 309 311 312 313 313 312 311 311 310 311 311 310 311 310 310 309 308 308 307 308 307 306 306 306 306 306 306 306 306 306 305 305 305 305
316 316 316 317 316 315 318 318 316 319 319 320 322 324 323 323 324 323 322 322 322 321 320 319 319 319 318 318 317 318 318 318 318 318 317 316 316 319 320 319 319 318 318 318 318 315 314 313 311 311 310 307 306 308 310 311 310 310 310 310 310 311 311 310 309 309 309 309 308 308 307 307 306 307 307 306 305 306 305 305 305 305 305 305 305 304 304
318 317 317 316 317 316 316 318 318 316 318 319 320 320 321 320 321 321 320 320 320 319 319 319 319 319 319 318 317 317 318 318 319 317 315 314 313 314 318 319 317 315 316 317 316 315 313 311 309 308 307 305 307 309 310 310 309 308 309 309 310 310 310 309 308 308 308 308 308 307 307 306 306 306 306 305 305 305 304 305 306 305 304 304 304 304 304
314 317 319 317 318 317 319 320 320 321 319 318 318 318 320 321 320 321 321 320 320 320 320 320 319 319 319 318 319 318 319 319 319 319 319 318 315 315 318 317 316 315 315 314 314 313 310 311 309 307 305 306 307 310 310 308 308 308 308 308 308 309 309 308 308 307 307 306 306 306 305 305 305 305 306 305 304 305 305 306 305 305 304 304 304 304 304
316 317 317 317 317 318 319 320 320 319 318 317 316 316 318 319 317 318 319 320 320 320 320 320 320 320 321 321 318 317 316 316 317 318 319 318 319 317 317 316 315 313 313 314 314 312 309 310 308 306 306 307 309 310 309 308 308 307 307 307 307 307 308 308 308 307 307 306 306 306 305 305 305 305 305 304 304 304 304 303 303 303 304 304 304 303 302
318 318 318 317 316 316 317 316 316 317 317 316 316 316 318 320 320 320 319 319 320 320 319 318 319 320 320 320 320 320 319 317 313 315 318 317 317 316 315 315 313 312 313 314 313 314 311 310 308 307 306 306 308 309 310 308 307 307 306 306 307 306 307 307 306 306 306 306 305 306 304 303 304 304 304 303 303 303 304 302 302 303 304 303 303 302 302
316 315 318 317 317 317 316 315 316 317 317 318 317 319 319 319 319 319 319 320 320 320 319 320 320 321 322 321 322 321 320 319 319 316 317 317 316 314 315 314 312 311 313 313 313 311 312 308 308 307 305 307 307 310 308 307 308 307 305 305 306 306 307 306 306 306 305 305 304 304 304 303 304 304 304 304 304 304 304 304 303 303 303 303 302 302 302
316 314 314 314 315 316 317 316 316 318 318 317 316 316 318 317 318 317 319 319 319 319 318 318 319 321 321 321 320 321 321 321 322 321 318 317 316 317 315 314 312 312 313 313 313 313 312 309 309 308 307 307 307 309 308 307 306 306 306 305 304 304 305 304 302 302 304 305 304 304 303 304 304 304 304 304 303 303 304 303 304 301 299 302 303 303 302
316 313 313 315 316 316 318 317 316 316 316 316 318 320 318 318 316 317 319 318 319 317 316 316 317 318 319 319 319 319 321 321 321 319 317 316 316 315 316 315 313 310 311 312 313 312 311 308 309 308 307 307 307 308 308 307 306 305 305 304 304 304 303 303 303 303 304 304 304 304 304 304 304 304 302 302 302 303 303 302 302 302 302 302 301 302 302
312 313 315 314 315 316 317 317 317 319 319 321 321 316 317 317 317 315 317 315 316 317 316 315 314 316 317 317 317 318 319 319 319 317 316 316 315 314 314 314 314 311 310 310 311 313 311 311 310 310 310 309 309 308 310 305 305 304 304 305 305 304 304 304 304 303 304 303 303 303 303 303 303 303 302 302 303 302 302 302 302 302 302 301 301 301 302
Wind_Speed
20 20 19 20 21 21 18 19 20 21 20 19 18 17 18 13 12 12 7 9 13 11 13 10 9 4 7 8 8 6 8 8 7 9 11 12 13 13 15 15 15 16 17 16 17 17 17 16 17 15 13 12 11 10 9 8 8 8 6 7 7 6 6 5 5 5 4 4 4 5 6 6 6 6 7 8 8 9 8 8 8 10 10 10 9 10 9
18 20 24 22 14 10 14 18 18 19 19 19 19 19 18 19 13 11 9 7 10 10 11 9 7 8 8 7 7 8 9 11 9 9 11 12 13 14 14 15 16 16 16 17 18 18 17 17 17 15 13 12 10 8 10 10 9 7 7 7 7 7 6 6 6 5 5 5 5 6 6 6 6 7 7 8 8 8 8 9 9 9 9 9 10 10 10
19 22 24 20 12 14 19 19 20 19 18 18 19 19 19 20 15 13 12 14 12 10 9 11 7 3 3 6 8 10 9 9 9 10 11 12 12 13 14 15 16 17 17 18 18 19 18 18 18 15 13 12 10 15 13 12 10 8 8 8 8 7 7 6 6 6 6 6 6 7 7 6 6 6 7 7 8 8 8 9 9 8 8 9 10 9 10
11 16 16 8 12 19 22 22 21 20 20 21 16 14 13 12 10 5 7 9 9 6 11 13 3 5 7 8 9 10 9 10 9 9 10 10 11 12 14 15 16 17 18 19 20 20 19 18 18 15 14 14 14 13 12 11 11 10 9 8 8 8 8 7 7 7 7 7 7 7 7 7 6 6 7 8 8 8 8 9 8 7 8 9 9 10 9
13 16 11 13 19 17 18 19 19 21 22 18 14 14 13 7 4 8 10 9 8 7 4 3 6 9 9 9 9 9 8 3 4 6 8 9 9 10 12 13 15 16 17 17 18 18 18 18 17 17 15 14 14 13 11 10 9 9 10 9 9 9 8 8 8 8 8 8 8 7 7 7 6 6 7 8 8 8 8 8 7 8 8 9 8 8 8
11 16 15 14 14 16 14 9 15 15 13 12 14 14 11 6 5 8 8 9 4 1 4 7 9 9 8 7 6 5 6 7 7 9 9 8 8 9 10 12 13 13 13 13 15 18 18 18 18 16 15 14 12 12 11 10 10 8 9 9 9 9 8 8 9 9 8 8 8 8 7 7 7 7 7 7 7 7 7 8 7 8 8 9 9 8 8
12 13 12 13 16 14 9 8 5 9 15 15 16 14 10 9 9 11 13 10 7 6 6 8 8 8 8 7 8 8 8 8 9 8 7 7 8 9 9 11 12 12 13 13 15 16 16 17 15 14 13 12 11 11 11 11 10 9 9 9 9 9 9 9 9 9 9 9 8 8 8 8 8 8 7 7 7 7 7 8 8 7 7 8 8 8 8
9 11 10 12 11 2 1 4 8 6 9 8 11 15 12 11 12 10 10 9 7 6 8 8 8 6 6 8 8 8 8 8 8 7 7 8 9 9 9 10 10 11 12 13 14 15 14 14 14 13 13 12 12 12 11 11 10 10 10 9 10 9 10 10 10 10 10 9 8 8 8 8 8 8 8 7 7 6 7 7 7 7 8 8 8 8 8
12 11 11 12 4 3 6 4 7 7 11 10 10 10 9 9 8 7 8 7 7 8 9 8 5 3 6 9 9 9 9 8 8 6 6 8 9 9 9 10 11 11 12 13 14 13 13 13 13 13 12 12 11 11 12 11 11 11 11 10 10 11 11 11 11 10 10 9 8 8 8 8 8 8 8 7 7 7 7 7 7 7 8 8 7 8 9
10 11 12 12 10 14 8 6 3 6 6 4 4 4 5 6 7 7 10 6 5 7 7 7 2 2 8 9 10 9 10 10 8 6 5 7 9 9 9 10 10 11 11 11 12 13 13 13 12 11 11 10 10 10 11 11 12 11 11 11 11 11 11 11 11 10 9 9 9 9 8 9 9 9 8 7 7 6 7 7 8 7 7 7 7 7 8
11 12 13 11 11 9 7 11 11 12 7 6 6 4 9 6 8 11 10 7 5 5 6 3 3 5 8 8 7 6 9 10 10 9 8 9 10 10 10 11 12 12 11 11 12 12 12 12 11 10 10 10 10 10 11 12 12 12 12 12 12 12 11 11 10 10 9 9 9 9 9 9 9 9 8 7 7 6 7 7 7 7 8 7 7 7 8
12 11 11 12 8 8 3 8 15 12 9 6 5 10 7 3 7 3 0 2 3 4 4 4 5 6 8 7 3 7 9 11 12 9 9 10 11 11 11 11 11 11 11 11 11 11 12 11 11 10 9 9 10 10 11 12 12 12 12 12 11 10 10 10 10 9 8 9 9 9 9 9 8 8 7 8 9 8 8 7 7 7 6 7 8 8 5
12 12 12 9 9 3 4 5 4 6 7 7 9 8 3 5 2 1 2 5 5 4 6 4 7 6 8 5 3 5 9 10 11 10 9 11 11 12 13 12 13 11 11 11 11 11 9 9 8 8 8 8 9 9 10 10 12 12 11 11 10 10 10 11 10 10 9 9 10 10 9 8 8 9 8 8 8 8 8 7 7 6 6 7 8 9 8
12 13 14 12 7 4 5 7 8 8 8 10 10 5 3 1 1 3 3 6 6 9 7 5 6 9 6 3 7 7 9 10 11 11 11 12 12 12 11 13 11 10 10 10 10 10 7 7 7 7 7 8 8 9 10 11 12 11 11 10 10 10 11 11 11 10 11 9 10 9 9 9 9 9 8 8 7 8 8 7 6 6 6 7 8 8 8
11 10 14 10 9 2 13 5 5 7 10 3 6 3 4 3 4 1 4 2 5 5 8 7 8 9 10 8 9 8 9 10 11 12 13 12 13 13 13 12 10 10 9 9 9 9 8 8 6 6 7 8 8 8 10 11 10 10 10 10 11 11 12 12 11 11 10 10 9 8 8 9 9 9 8 8 8 7 8 8 7 8 8 7 8 8 7
10 11 9 5 2 7 5 5 3 6 3 3 3 3 4 1 3 3 4 5 5 6 7 9 10 9 9 9 9 9 9 10 11 12 12 12 12 12 12 11 10 10 8 7 8 8 7 6 7 7 7 7 7 8 9 8 9 9 10 11 11 12 12 12 11 10 10 10 10 8 8 8 9 9 8 7 6 6 8 9 7 7 8 7 6 7 9
6 3 5 4 4 5 5 3 4 4 4 2 2 2 3 5 3 3 6 6 7 7 8 7 9 10 9 9 7 6 3 7 10 12 12 13 12 12 11 12 10 8 8 7 5 4 3 3 4 3 4 6 8 10 9 8 8 9 10 10 10 10 10 10 10 9 10 9 9 9 9 8 9 8 9 9 7 5 4 7 9 8 7 7 6 6 8
6 5 6 5 4 3 4 6 3 4 4 6 4 5 4 4 6 5 6 8 8 10 7 8 8 9 9 11 7 5 10 12 9 10 11 10 10 10 9 9 8 6 6 6 5 5 5 4 4 4 4 5 7 8 7 7 8 8 8 8 9 10 8 7 9 10 10 10 9 9 9 7 8 8 9 9 7 5 4 8 9 7 6 4 7 6 7
5 4 2 2 3 3 1 6 7 8 7 7 7 6 5 6 7 7 7 7 9 9 10 9 10 10 11 10 11 14 12 11 10 11 10 9 9 9 9 8 7 5 5 4 4 4 4 4 4 5 5 5 5 5 6 7 8 7 7 8 9 9 9 10 9 9 10 7 8 8 7 8 9 11 8 8 5 4 4 9 9 5 7 7 5 7 5
7 2 3 2 4 7 8 7 6 7 8 8 7 5 5 5 5 6 6 7 8 8 10 10 10 12 11 10 9 7 7 6 10 10 10 10 10 9 9 8 6 6 5 4 4 3 3 2 1 3 5 5 7 7 7 9 9 6 7 8 9 9 9 7 6 6 7 12 11 7 8 9 11 7 3 1 3 2 8 11 10 7 7 6 5 5 7
8 8 4 4 5 4 7 8 8 7 8 8 8 7 6 7 7 7 6 3 7 6 8 6 8 10 9 10 8 8 5 7 8 9 10 10 11 10 9 8 6 6 5 6 5 4 4 2 1 1 3 5 8 9 7 7 6 7 7 8 8 7 6 5 7 8 9 7 5 6 7 8 2 4 2 2 2 4 2 2 3 2 3 4 6 5 5
7 2 3 3 5 7 5 8 9 8 8 8 8 7 8 8 8 7 8 2 3 6 7 5 5 9 9 11 12 13 14 12 8 9 9 10 10 10 9 8 8 8 7 6 4 3 3 2 1 1 2 3 4 7 8 6 4 5 5 5 7 8 10 10 10 11 9 9 9 7 6 6 4 6 8 10 9 0 5 5 10 11 9 4 5 5 4
0 5 4 5 3 3 6 6 8 7 8 8 8 8 8 9 9 10 8 8 0 4 4 7 7 9 3 2 7 12 12 7 8 8 10 10 9 8 8 8 7 6 6 5 4 4 3 2 1 0 2 3 2 4 4 4 3 4 5 6 7 9 9 10 7 8 5 5 5 8 9 4 8 7 5 8 15 16 13 9 10 12 12 11 12 11 6
8 7 6 5 6 6 6 6 6 6 5 7 7 8 8 9 9 10 10 8 8 1 2 2 7 4 3 3 4 10 2 10 9 9 9 9 8 7 6 7 6 6 6 5 5 4 3 1 2 1 2 2 2 5 2 2 4 5 6 6 7 8 9 8 0 6 8 11 8 7 7 4 7 6 6 5 5 10 10 9 9 10 11 10 10 10 11
6 7 5 6 6 7 7 7 6 5 2 7 8 9 10 10 10 10 9 9 7 6 5 5 7 9 9 12 10 11 9 7 7 8 8 7 8 6 6 7 8 7 6 5 4 3 4 3 2 0 0 1 1 3 4 2 3 4 5 6 8 9 8 7 8 5 5 6 7 8 9 7 4 4 4 5 5 5 4 5 6 6 6 7 8 9 9
6 6 7 6 6 7 6 8 7 2 6 8 8 9 10 9 9 10 8 7 8 7 8 6 5 4 5 7 9 5 6 8 9 9 7 7 7 6 7 8 7 6 6 5 4 3 4 3 3 2 2 2 2 1 3 2 2 4 6 6 7 7 7 6 6 7 7 6 6 6 7 5 2 4 8 7 6 6 5 5 3 2 2 2 1 4 5
7 7 8 8 8 6 4 5 6 9 9 10 10 10 10 11 9 9 9 8 7 6 9 6 6 1 2 5 4 5 5 6 7 7 6 7 8 8 7 7 7 7 6 6 5 4 3 2 3 2 1 2 3 0 2 2 2 4 5 5 6 7 8 6 8 7 7 8 6 7 6 3 2 3 4 4 3 4 4 5 5 5 5 5 4 6 3
7 6 5 7 7 7 7 7 8 10 10 10 10 11 11 10 11 11 11 11 9 8 7 9 7 3 5 5 7 7 9 10 9 8 7 8 7 6 6 7 7 6 6 6 6 5 4 3 1 1 2 2 0 2 2 1 3 4 4 5 5 6 6 4 6 5 6 6 6 5 6 4 5 2 0 2 3 5 5 3 4 5 5 5 5 6 6
6 6 3 4 4 5 6 6 7 8 9 9 9 9 10 12 12 12 12 11 11 9 9 7 8 5 6 6 7 8 6 7 7 7 6 4 5 7 7 7 6 6 6 6 6 5 4 3 2 1 1 1 2 2 3 3 3 4 4 4 5 5 5 3 5 6 6 6 5 5 5 4 4 2 3 3 3 2 3 3 2 2 5 6 6 5 4
5 6 6 7 7 9 9 10 8 8 9 9 11 11 11 11 12 11 11 12 11 11 10 10 9 8 6 6 6 4 8 6 6 5 5 5 6 6 6 6 6 5 5 5 5 4 4 4 2 2 1 1 4 2 4 3 4 5 5 5 5 4 5 6 5 3 4 6 6 2 4 3 2 1 2 2 3 3 3 1 1 2 3 3 2 3 2
8 7 9 9 10 9 10 9 9 9 9 9 9 10 10 11 12 11 11 10 10 11 11 12 9 8 8 9 7 7 9 10 7 7 6 5 5 5 5 5 6 6 6 5 5 4 4 3 1 2 4 4 5 5 5 6 5 6 5 5 2 6 5 5 4 4 3 5 7 6 4 2 4 5 5 4 5 5 5 4 4 4 6 6 5 5 5
9 10 11 10 9 10 10 8 8 9 9 10 11 12 12 11 11 12 11 11 11 10 10 11 11 11 11 9 10 9 7 6 9 8 8 7 6 5 4 3 2 4 5 3 2 3 2 2 2 2 0 3 4 6 6 6 5 5 6 5 3 2 4 3 3 3 4 5 6 3 2 0 4 4 5 6 5 4 4 4 5 5 6 4 3 5 5
9 10 9 8 8 9 10 10 11 12 12 13 12 11 12 12 12 13 12 12 11 11 10 10 9 9 9 9 8 8 9 10 9 9 9 8 7 6 5 4 5 5 5 4 3 2 2 2 2 1 1 3 5 6 7 6 6 6 5 3 2 3 0 3 7 4 0 3 4 6 6 6 4 5 6 6 5 5 5 5 6 5 5 3 3 5 5
9 9 10 11 11 11 12 12 12 12 13 13 12 12 12 12 12 12 12 11 12 11 10 9 10 11 10 8 8 8 8 8 8 9 9 8 8 7 7 6 6 5 5 3 3 1 1 1 1 1 1 4 5 6 6 7 6 4 3 1 2 1 4 1 1 3 2 1 4 5 5 5 6 6 6 5 5 5 5 6 6 7 8 6 3 3 4
11 12 13 14 14 14 14 14 13 14 14 14 14 13 13 13 12 12 12 12 11 10 10 11 12 12 9 8 10 12 12 12 9 9 9 9 8 8 7 7 7 6 5 2 1 1 2 1 1 3 2 1 3 4 4 5 2 0 3 3 4 3 3 2 2 2 2 3 3 5 5 5 5 5 4 3 3 3 3 2 3 2 2 3 4 2 2
14 13 13 13 13 15 15 15 15 15 15 14 15 15 15 15 15 15 15 15 12 10 9 10 11 10 10 9 9 8 10 9 8 9 9 9 9 7 7 6 6 5 4 4 2 2 2 2 3 6 3 2 1 2 4 4 2 4 3 2 4 5 4 3 4 4 3 3 5 5 5 5 5 4 3 2 2 3 3 1 3 3 2 1 3 4 3
13 13 13 13 13 14 14 13 13 13 13 14 14 15 16 16 16 15 16 14 12 10 10 9 8 8 9 9 11 8 5 7 7 8 8 8 7 7 6 5 3 4 5 5 4 3 1 2 2 4 2 2 1 3 2 3 1 3 3 4 4 4 4 4 4 3 4 4 3 3 3 2 2 1 1 1 2 3 4 4 3 2 2 3 3 4 3
14 14 14 13 13 14 14 13 13 13 14 15 16 15 16 15 14 14 14 12 11 10 8 8 8 8 5 4 5 8 8 8 8 9 8 8 7 6 6 5 4 4 4 4 3 2 2 3 4 3 4 3 3 4 4 3 3 3 4 3 4 3 4 4 3 4 5 3 2 3 2 2 2 2 3 4 4 3 3 2 2 3 3 3 4 3 3
15 13 13 13 13 13 14 13 13 13 14 15 14 15 14 15 14 12 11 12 8 3 5 5 4 6 7 7 7 7 7 7 8 9 8 7 6 6 6 4 4 3 4 6 6 4 4 5 4 5 4 4 5 5 5 4 3 3 3 3 2 1 1 0 3 5 5 4 1 2 2 2 3 4 4 4 3 3 3 2 2 3 3 4 3 4 5
14 14 14 13 13 12 12 13 14 13 14 13 12 13 12 12 11 11 9 7 5 5 5 6 8 8 8 7 7 7 6 6 4 5 6 5 6 6 6 5 4 3 5 3 4 4 4 4 5 5 4 4 4 4 4 3 4 5 4 3 3 3 3 3 3 3 3 3 2 2 3 3 4 4 4 4 3 3 4 4 4 4 5 4 4 3 3
15 14 12 12 13 12 13 12 12 12 12 11 10 9 8 7 6 6 5 4 5 5 5 6 6 7 8 7 7 7 5 5 6 7 7 7 7 6 6 7 5 4 7 6 5 6 2 6 4 4 4 3 3 3 3 9 6 6 3 2 4 5 4 4 5 5 6 6 5 5 5 5 4 4 4 4 5 4 4 5 5 4 3 4 4 4 4
12 12 13 13 11 9 10 10 10 10 9 8 7 7 7 5 3 3 4 5 5 4 4 4 5 6 7 7 7 6 5 5 6 6 7 7 7 6 7 6 6 6 11 11 8 6 4 3 4 3 3 3 3 2 8 5 5 5 5 6 6 6 7 7 6 5 5 5 6 6 6 5 6 5 4 4 4 4 4 3 3 3 3 3 3 4 3
11 8 8 10 14 16 10 8 9 7 5 3 3 5 3 0 3 5 6 6 6 7 7 6 5 4 4 4 5 6 6 7 7 6 6 6 5 3 5 8 6 6 7 5 6 5 3 3 4 7 10 7 5 3 6 6 4 3 3 4 4 6 6 5 5 5 4 4 4 5 5 4 5 5 4 4 4 4 4 4 4 4 3 3 4 3 3
8 8 6 6 3 5 4 5 9 7 2 4 3 5 6 6 6 6 6 7 7 7 6 6 4 3 3 1 4 4 4 6 6 6 5 4 3 5 8 7 5 6 8 6 7 5 4 5 7 8 10 6 1 5 6 4 2 2 3 3 3 2 3 3 3 3 3 4 4 3 5 5 5 5 4 5 4 3 3 4 4 4 4 3 2 3 3
7 5 4 6 2 1 5 6 6 6 6 5 4 4 4 4 4 3 3 4 4 4 3 4 5 4 2 1 2 4 4 5 5 6 6 6 6 5 6 8 7 7 7 7 4 4 6 8 9 9 5 2 4 6 5 2 2 3 3 3 3 4 4 5 5 6 6 5 4 4 1 2 5 4 5 4 2 3 4 3 3 3 3 4 4 3 3
9 8 4 3 2 4 1 3 4 4 3 2 2 3 3 2 3 3 3 2 3 4 4 4 4 4 4 5 5 5 6 6 6 6 5 4 5 7 6 6 6 7 6 7 4 7 10 14 11 6 4 4 5 6 2 1 3 3 2 3 4 4 3 4 3 4 3 5 5 4 3 4 3 4 4 4 5 4 4 1 2 3 3 2 3 3 3
4 5 4 6 4 3 3 3 2 3 3 2 1 2 2 2 2 2 2 1 2 3 3 3 4 5 6 7 7 6 6 6 6 4 4 4 7 8 7 8 9 9 8 5 4 8 10 10 8 6 2 3 7 5 3 2 1 2 3 3 4 4 4 4 3 4 4 4 4 3 1 4 4 5 4 2 2 2 4 4 4 3 3 2 3 3 1
5 5 4 3 3 5 3 3 4 3 3 1 2 3 2 0 1 2 3 4 4 5 6 6 5 5 6 6 6 5 5 5 5 6 5 6 6 6 7 7 8 10 6 13 13 15 16 14 12 8 6 6 6 4 3 3 2 3 3 3 3 4 4 5 4 4 3 4 2 4 4 4 5 5 3 5 5 5 4 4 5 4 3 4 4 4 5
7 7 6 6 5 5 5 4 3 2 2 2 1 3 4 4 3 3 3 3 3 4 4 4 4 4 4 5 5 5 5 4 4 5 6 6 6 7 7 9 12 10 8 5 9 8 12 14 13 10 7 7 7 6 3 5 6 4 5 4 5 3 3 3 4 5 5 5 5 5 5 7 6 5 4 4 4 4 4 4 4 4 4 4 4 3 4
4 3 4 4 4 4 3 3 3 3 2 3 5 5 5 2 4 4 3 4 3 2 3 3 4 4 4 4 4 3 3 3 4 5 7 8 8 7 8 10 9 10 9 7 5 8 11 14 14 12 8 6 8 7 3 3 5 5 5 3 3 6 2 6 10 9 3 4 5 5 6 5 5 4 3 4 4 4 4 4 4 6 9 3 3 4 4
1 1 3 4 3 2 3 2 2 3 3 6 7 5 3 4 3 1 1 1 2 3 4 2 3 3 3 3 4 4 4 4 3 4 5 6 7 7 9 7 8 7 7 7 5 8 8 8 7 8 8 7 7 8 6 5 5 5 5 6 5 7 4 3 7 6 5 4 4 4 4 5 4 4 5 5 4 4 3 4 4 4 6 7 5 4 4
1 2 3 5 5 6 6 6 7 8 6 4 4 4 2 1 1 3 1 2 4 2 4 3 3 4 4 3 3 3 5 5 4 5 6 4 5 6 6 6 7 7 7 7 6 8 9 7 8 8 7 7 6 6 4 2 5 4 6 7 6 5 6 3 4 6 7 6 5 5 4 4 4 5 5 5 5 5 5 5 5 4 5 5 6 6 5
Wind_Direction
235 247 248 226 221 219 219 212 225 224 225 235 233 235 240 235 239 258 228 228 250 262 266 286 290 255 238 259 272 247 247 243 220 210 201 196 195 190 191 192 193 188 184 176 174 175 173 167 166 164 168 172 177 182 185 197 200 194 178 174 187 197 197 206 211 224 235 239 241 248 251 251 264 273 281 283 280 279 282 288 293 298 297 301 307 300 290
230 231 241 246 252 258 237 238 226 226 225 220 225 235 238 237 236 236 228 189 241 256 269 282 307 309 303 297 291 282 265 257 252 223 203 204 200 194 194 194 192 191 185 177 179 178 174 171 167 166 169 174 167 170 197 196 201 191 177 179 186 196 202 202 206 214 218 223 234 245 250 255 260 271 274 282 288 288 292 295 295 296 305 299 287 283 287
225 226 225 231 224 234 245 239 240 237 235 234 229 233 231 236 240 217 222 248 246 247 269 273 268 302 296 272 262 265 269 262 247 233 217 211 208 199 196 192 192 190 184 182 182 182 176 171 168 165 168 150 166 200 196 195 189 191 181 181 190 196 202 204 206 207 212 218 229 236 243 248 253 262 275 278 278 284 290 293 296 295 286 288 292 294 294
251 252 246 225 242 240 242 246 244 242 241 242 238 237 233 233 233 234 261 252 252 252 256 255 188 226 242 255 258 257 256 250 245 247 240 223 214 207 197 192 191 190 190 188 188 185 176 170 167 166 161 167 187 199 196 193 189 185 187 184 193 197 200 201 203 207 212 221 224 234 238 246 252 259 272 278 278 280 286 289 291 293 294 296 294 288 288
236 244 238 234 238 244 242 233 234 234 236 243 237 237 245 260 283 238 233 240 258 273 343 323 259 266 277 287 283 281 266 272 291 268 254 242 222 212 198 194 194 195 195 193 190 184 174 171 169 168 166 179 187 193 191 191 191 182 184 189 192 199 199 201 202 203 213 219 225 230 235 241 249 259 263 271 272 275 284 292 296 293 289 283 285 291 291
239 239 224 233 242 236 238 244 250 252 254 250 250 242 240 224 213 263 269 279 312 36 264 266 279 277 280 288 299 312 301 277 256 249 242 237 223 207 200 195 194 192 194 193 191 183 177 171 169 169 173 183 184 184 187 187 190 187 185 188 195 199 201 203 203 206 210 219 226 231 233 238 245 254 264 265 271 279 286 284 282 288 294 291 293 292 289
234 245 233 237 234 239 253 263 260 234 234 231 251 258 237 227 222 234 251 253 241 256 268 268 270 271 273 275 278 275 268 254 252 239 226 212 209 199 189 188 189 186 189 185 185 180 177 173 169 171 175 181 181 182 186 188 187 189 188 195 199 200 202 203 207 210 213 217 227 231 234 239 245 253 255 259 267 277 282 290 291 292 299 295 285 288 293
244 246 224 233 238 264 146 246 248 261 280 252 244 246 242 241 244 226 234 245 260 264 266 263 257 264 280 280 267 256 251 233 234 224 209 196 193 190 186 178 179 176 184 181 177 177 174 171 172 177 179 184 188 185 189 191 186 189 189 199 205 205 206 206 209 211 214 218 225 232 239 243 248 247 248 254 262 267 274 277 286 291 283 286 288 288 293
240 231 230 237 96 244 203 210 209 204 233 230 229 240 226 227 230 241 252 253 254 268 274 271 266 281 283 275 264 223 216 208 224 226 203 182 182 175 171 171 174 174 177 175 173 169 170 173 177 183 182 187 195 192 190 196 190 193 195 199 209 207 209 210 212 211 213 218 223 232 236 242 244 243 243 251 256 254 262 273 276 281 289 289 295 289 290
221 241 244 233 217 241 204 201 207 232 240 200 193 229 217 174 238 244 254 239 236 255 268 281 330 337 279 270 265 199 187 177 195 195 181 155 156 156 160 157 160 166 169 167 163 170 169 177 182 185 187 187 192 200 200 196 197 198 202 206 209 210 211 214 214 214 214 215 224 232 236 241 240 241 243 243 250 251 264 279 280 283 288 283 280 293 298
220 230 242 246 255 244 245 179 231 214 198 189 118 193 238 169 225 239 239 241 264 268 271 233 202 261 271 271 274 141 160 166 167 169 168 153 145 152 153 157 155 160 162 165 162 170 171 179 183 188 194 197 197 202 211 212 206 204 206 212 212 210 211 214 216 218 216 218 227 237 236 236 240 246 244 246 250 256 266 260 266 272 269 282 295 300 321
235 231 231 244 240 263 29 273 221 196 169 202 168 243 247 186 209 180 61 248 241 250 235 261 249 255 269 279 25 147 172 163 155 164 154 138 141 146 148 150 148 153 156 162 169 171 178 182 183 191 196 208 218 210 213 217 221 213 213 216 215 212 213 214 216 219 222 223 227 236 241 240 243 245 244 244 244 244 244 262 282 292 301 299 298 296 307
237 248 247 254 238 105 175 202 106 140 184 194 221 237 276 104 202 136 222 257 256 235 238 221 266 221 253 296 273 224 172 161 152 154 146 143 148 148 152 145 147 150 159 165 173 177 177 178 181 193 197 208 218 218 221 222 226 225 218 215 214 210 213 217 215 214 220 224 229 230 233 243 244 240 236 241 247 251 260 265 270 279 288 288 291 289 296
237 236 247 246 274 53 199 154 198 181 182 218 247 38 327 68 282 110 213 273 304 307 306 271 247 276 273 266 265 228 185 168 156 154 147 147 150 151 135 134 150 151 160 162 172 174 165 174 188 194 199 210 218 223 225 231 231 228 224 218 213 210 215 216 218 215 216 216 228 228 229 231 235 240 241 249 258 261 262 264 260 270 280 279 281 293 290
236 245 254 252 237 114 278 156 198 101 241 41 86 78 10 95 240 292 283 311 306 310 295 287 275 267 276 258 241 220 189 168 168 163 157 153 157 143 137 149 151 156 153 165 175 182 182 187 186 196 207 212 219 224 230 234 236 233 224 221 215 211 215 214 215 219 218 216 220 222 224 227 234 237 239 240 241 257 261 255 261 256 256 266 273 281 287
241 238 237 281 92 162 192 179 223 188 43 61 48 13 214 92 324 294 305 281 294 300 296 295 288 279 265 256 253 221 185 181 178 158 154 156 149 145 158 152 155 160 146 173 176 196 201 193 192 194 212 217 225 235 241 243 242 238 231 223 216 214 213 214 215 220 220 216 217 224 227 228 231 235 236 237 247 246 245 241 237 244 247 251 264 273 292
319 349 107 87 69 102 119 98 110 104 93 148 64 292 308 292 277 351 289 296 285 269 269 266 265 263 260 270 245 208 180 208 172 157 160 158 154 160 161 158 156 163 161 159 165 153 130 114 126 161 194 230 233 241 245 249 248 242 235 230 221 220 220 222 226 227 221 219 221 220 229 233 239 235 239 230 237 240 267 277 253 247 253 247 265 306 294
107 113 86 122 128 96 130 136 100 40 50 38 18 14 335 8 327 322 307 305 295 280 267 263 257 255 249 231 235 210 197 217 164 153 149 150 158 160 136 117 134 160 150 162 161 164 153 164 182 196 226 240 251 254 261 256 254 250 241 236 227 229 224 225 232 230 227 220 225 230 234 243 251 238 242 241 218 217 238 249 245 247 263 269 278 278 276
222 182 151 134 97 142 78 52 53 37 37 23 26 21 358 346 331 318 316 304 294 286 278 258 254 250 238 223 196 217 206 166 151 148 139 138 139 143 131 126 130 142 151 165 168 187 188 179 209 210 207 222 248 264 260 263 255 246 244 232 233 233 227 231 223 223 232 230 235 228 229 239 246 243 233 237 225 191 215 258 255 231 236 259 242 237 270
233 113 146 137 91 59 58 48 53 31 18 18 19 20 355 329 318 299 299 289 274 272 261 253 246 245 229 225 196 177 150 159 168 148 138 134 127 123 119 122 129 129 131 136 106 88 82 81 24 323 312 288 265 250 260 273 274 255 229 237 240 234 235 233 228 228 229 235 238 229 223 231 246 244 260 185 127 231 255 250 234 233 255 268 294 304 294
89 124 195 220 130 112 93 80 53 26 13 7 11 9 349 350 341 349 318 310 307 296 294 300 278 250 206 215 159 145 135 216 180 145 136 131 127 127 123 119 119 104 94 91 93 94 105 98 80 303 282 289 302 303 280 265 280 270 249 233 238 251 252 223 233 232 232 222 224 237 246 253 62 47 7 306 147 149 50 353 352 293 262 258 275 289 301
226 249 71 346 231 205 124 42 27 18 21 9 14 13 10 10 356 341 315 334 4 335 347 307 251 266 211 189 168 204 184 186 161 144 131 130 125 120 117 116 107 105 103 105 107 108 112 104 120 275 288 294 300 295 302 289 256 257 248 243 247 237 243 236 230 231 215 226 219 221 228 246 143 101 68 46 9 258 127 61 60 50 58 44 22 346 333
239 84 78 43 33 123 50 14 12 3 23 8 11 18 9 5 354 344 330 303 77 73 13 340 285 228 232 89 239 222 170 149 133 141 135 129 124 124 125 117 114 103 102 114 124 123 118 106 159 194 273 288 286 303 327 338 322 276 255 257 260 266 267 263 301 309 281 183 254 253 244 183 177 176 147 61 38 39 55 74 72 77 82 81 62 49 23
82 49 36 24 16 348 349 354 1 354 30 6 2 4 4 358 349 347 340 329 307 98 218 215 280 49 356 319 268 317 124 144 162 148 137 133 127 128 127 116 121 133 149 142 134 124 121 153 145 253 303 303 37 309 329 321 315 294 273 267 266 266 267 283 229 216 229 259 262 279 275 211 161 221 187 134 95 48 37 44 56 69 76 74 70 66 55
19 28 15 14 334 330 320 322 334 338 56 20 356 348 352 342 342 349 328 329 316 288 236 199 223 186 192 228 208 200 184 151 141 133 125 125 128 140 142 139 149 158 148 133 127 139 151 165 133 122 143 12 18 339 342 321 295 289 283 275 278 284 291 277 256 265 269 275 274 277 273 276 157 148 251 195 162 147 100 68 55 50 45 73 89 83 67
345 355 354 321 308 300 310 296 268 274 18 350 339 333 333 321 330 322 314 300 300 307 289 262 228 187 197 201 239 212 144 168 143 138 145 141 153 162 171 162 151 140 134 134 139 155 151 149 153 164 185 239 172 173 271 269 260 269 277 272 276 280 284 299 297 296 282 263 267 269 262 245 302 200 208 224 223 150 152 154 134 108 96 343 8 115 122
323 323 312 313 289 291 312 338 325 340 332 327 317 319 311 306 311 305 295 287 285 299 290 283 272 113 245 247 230 144 196 138 154 177 165 166 170 177 169 148 142 136 140 136 139 115 101 127 159 176 200 18 44 343 265 294 274 269 268 276 274 275 277 289 294 287 279 283 264 246 260 282 212 204 12 12 359 123 183 183 177 172 161 167 202 225 222
298 304 300 296 306 304 315 319 322 314 308 306 306 300 304 307 291 282 280 273 251 240 251 283 292 190 227 222 211 192 179 171 183 182 173 187 182 153 138 129 138 153 143 143 142 146 167 161 152 206 86 72 332 244 270 267 267 266 265 270 273 277 289 240 249 263 272 265 280 305 300 299 283 327 75 133 183 178 180 184 189 172 153 158 169 201 214
277 275 292 295 315 321 305 300 290 290 292 294 295 300 297 294 294 290 288 290 297 286 272 256 246 247 238 225 228 225 210 205 194 191 187 180 129 126 127 136 154 152 149 153 145 147 142 133 112 92 124 114 304 316 303 284 275 270 273 274 281 282 265 315 345 315 319 315 307 340 335 302 292 69 117 145 142 158 177 167 173 166 143 142 144 145 206
340 348 328 319 313 301 296 288 294 302 302 302 300 297 293 291 288 286 285 285 286 285 270 264 262 248 233 253 246 237 242 231 220 171 135 138 141 147 145 151 163 147 156 153 141 127 119 111 126 164 184 308 275 269 286 297 282 289 286 292 291 301 320 1 327 329 318 314 310 8 269 271 269 277 61 89 96 101 79 131 77 127 113 85 24 109 143
324 321 306 299 297 299 297 304 302 295 289 288 291 296 298 292 288 286 287 286 283 280 280 276 272 272 254 242 234 229 239 241 198 163 157 142 131 130 138 175 200 186 189 161 143 159 150 152 135 329 6 324 308 301 293 289 289 283 275 269 268 77 45 18 309 303 312 296 267 256 247 217 54 70 111 116 106 96 102 101 100 79 74 59 41 31 30
316 312 312 312 306 297 289 287 294 300 311 312 303 294 296 297 292 289 284 280 280 275 271 264 252 242 240 241 243 216 197 153 148 153 143 142 135 139 145 153 97 94 112 116 113 77 80 94 113 104 359 279 280 280 285 279 273 276 278 273 287 262 60 360 267 270 286 288 279 311 27 137 99 107 91 90 101 115 129 97 87 79 74 82 80 54 28
313 305 297 307 312 309 311 312 303 299 298 298 297 296 292 286 285 284 285 287 288 287 288 288 276 252 241 236 217 190 173 159 158 158 151 144 145 145 150 135 123 114 107 106 113 132 108 124 124 145 241 269 278 284 280 285 285 284 284 356 41 45 130 53 13 300 51 328 17 22 39 42 90 111 114 111 104 113 125 119 122 135 148 141 82 56 38
304 304 307 304 298 299 298 297 296 293 291 288 289 289 285 284 285 287 285 282 274 272 269 268 269 260 243 231 207 196 190 185 174 163 152 150 146 140 134 133 126 119 111 125 140 118 123 88 146 216 203 278 286 295 310 300 299 290 296 289 87 123 300 360 15 356 43 73 79 75 92 114 111 118 116 119 141 148 157 182 175 170 139 111 92 79 71
300 295 294 293 292 291 294 295 297 295 292 289 289 287 287 287 285 283 283 275 272 277 280 279 284 286 264 227 220 219 221 214 190 159 147 146 143 141 135 130 129 126 119 100 74 133 68 79 360 310 264 316 322 310 329 317 303 273 84 74 69 91 106 72 59 82 85 83 100 107 107 99 104 103 129 151 165 176 172 42 18 4 48 117 121 127 104
291 291 291 290 290 289 286 285 284 287 288 288 287 287 287 286 285 283 282 280 273 256 255 263 260 255 249 235 231 226 226 194 159 151 147 141 139 137 144 143 141 140 139 138 122 103 133 89 60 358 1 26 326 12 13 335 65 73 83 89 111 95 93 100 106 98 80 99 98 93 77 66 67 58 66 91 80 41 44 115 180 207 218 195 153 163 187
292 288 285 285 284 286 286 285 283 282 282 282 281 281 280 282 281 278 276 276 277 280 278 275 269 252 243 229 228 222 174 152 156 150 142 136 139 151 156 155 161 156 174 163 140 97 50 68 66 288 267 125 119 62 38 342 348 84 101 110 107 119 134 147 160 160 141 126 124 118 113 109 113 133 143 157 183 202 199 201 217 221 209 181 185 193 189
286 284 283 281 281 280 281 282 282 282 281 280 278 275 275 274 271 270 272 274 268 263 266 264 254 244 232 193 139 131 155 161 154 144 144 145 146 146 143 145 151 223 225 152 141 145 154 123 214 213 116 97 93 107 102 91 92 109 118 115 132 144 147 153 161 171 171 174 138 120 160 186 142 194 205 198 187 204 221 221 195 197 204 196 200 171 177
283 284 283 283 283 282 281 278 274 271 272 276 277 274 270 268 270 269 263 257 255 238 224 224 171 148 148 154 163 164 157 157 149 148 141 132 135 145 137 110 87 35 111 140 165 152 163 169 152 124 116 107 110 109 112 135 155 138 132 140 104 89 88 46 57 40 20 61 180 251 238 199 194 204 221 226 207 199 218 246 212 195 205 193 179 188 182
283 280 280 282 286 290 287 284 282 278 272 270 280 290 289 273 261 255 246 230 206 192 181 162 162 161 159 157 158 152 137 132 143 127 125 129 142 141 127 114 106 71 30 331 148 142 156 189 150 115 127 140 135 115 116 186 189 143 138 128 142 146 145 138 148 174 180 205 180 204 231 222 226 232 231 234 220 217 198 182 209 210 204 171 186 177 174
284 283 286 287 286 285 286 288 285 283 285 284 281 282 288 288 273 246 218 173 148 176 177 174 171 154 146 140 131 120 130 138 151 161 165 171 168 169 160 134 126 159 189 211 139 129 186 252 155 154 151 179 112 360 178 169 228 253 213 179 195 180 181 195 222 217 197 209 207 222 233 231 217 246 252 245 242 212 193 199 200 197 176 168 177 176 178
290 288 280 275 278 283 290 293 289 282 283 294 290 288 286 273 238 182 130 130 133 127 119 132 137 159 161 150 139 147 157 161 168 167 185 192 170 182 152 151 149 118 103 100 109 147 172 134 130 143 147 154 120 56 344 315 287 267 235 210 222 216 221 218 211 222 239 245 247 244 231 247 264 242 219 245 234 222 199 190 170 192 190 170 170 168 163
271 290 335 332 319 311 321 321 292 289 293 305 4 347 311 218 120 121 129 129 127 119 105 92 93 100 126 180 194 171 168 187 174 176 182 187 182 216 164 129 149 136 153 166 174 172 141 151 109 71 56 56 64 42 280 268 264 256 269 298 326 336 329 315 308 307 303 283 261 265 291 266 237 253 252 238 224 202 203 185 188 189 167 182 179 167 160
294 288 295 300 334 335 338 345 316 332 329 99 96 81 62 57 57 68 81 90 90 90 90 95 91 68 334 355 134 153 179 180 174 175 165 149 135 96 121 153 156 154 204 204 185 179 153 97 97 86 83 76 97 277 273 270 296 294 300 313 321 271 237 248 270 285 263 245 261 249 236 254 264 241 226 226 207 198 189 199 188 170 183 181 149 169 167
294 292 297 292 262 162 329 11 15 10 343 8 47 62 89 99 103 108 103 100 98 96 92 121 124 145 170 198 207 180 190 189 184 176 176 164 165 153 147 134 144 160 189 237 231 177 118 109 106 112 119 180 253 271 268 274 296 303 333 293 256 255 246 248 235 230 228 233 230 245 258 224 231 231 221 212 227 192 176 199 181 166 168 198 178 162 148
302 266 242 222 6 5 7 358 353 321 346 307 105 74 64 73 81 77 81 95 119 125 132 134 143 165 186 193 180 195 203 201 192 191 199 199 170 152 170 180 165 170 184 221 204 118 101 111 120 128 150 221 278 265 250 31 296 298 260 264 261 249 256 264 251 269 270 248 239 240 204 226 233 216 210 214 188 222 156 129 151 175 186 195 169 199 167
339 308 356 344 351 349 340 329 5 326 289 287 227 119 83 93 117 126 134 130 131 144 147 156 182 201 211 213 206 196 201 188 182 180 162 161 164 158 168 168 128 138 184 228 233 141 127 130 132 137 206 256 276 286 317 303 308 302 292 289 288 267 250 245 230 229 210 224 210 211 218 274 229 210 198 203 200 211 139 181 215 207 183 182 145 118 145
4 3 5 19 350 328 354 343 343 6 14 59 5 317 292 87 165 162 186 184 191 181 186 192 200 201 210 207 210 220 209 196 185 171 175 156 178 152 169 187 160 189 168 77 82 105 120 127 132 150 194 242 254 230 253 271 276 300 298 275 268 278 261 243 231 224 221 229 180 195 194 199 245 251 191 200 214 210 194 188 213 213 200 180 193 180 197
18 7 13 0 351 1 2 340 330 312 330 359 246 247 239 204 198 194 204 187 188 210 200 176 181 190 198 203 209 193 197 196 194 186 166 175 158 170 187 137 145 174 211 194 139 136 137 135 147 155 196 245 261 273 304 309 314 320 294 290 291 271 261 243 236 233 218 217 207 209 210 211 207 221 213 208 208 194 187 190 205 207 209 194 194 191 189
71 8 4 350 334 321 329 335 321 297 334 350 333 289 243 192 228 210 190 211 202 221 225 181 179 187 207 180 193 196 154 170 189 188 179 181 178 191 157 153 165 184 215 257 173 140 145 151 157 174 190 217 258 281 296 281 282 277 304 312 279 258 215 36 14 4 311 239 224 208 216 231 214 204 219 199 205 204 192 199 210 82 37 332 203 190 188
92 122 271 265 249 249 264 246 289 307 278 239 233 235 239 252 295 14 259 295 225 205 250 176 199 216 208 196 176 162 169 190 188 192 211 184 184 189 168 166 169 184 211 255 146 150 161 173 183 187 205 226 253 271 268 254 248 280 268 272 263 270 246 185 238 226 225 263 252 229 225 224 223 181 204 231 209 206 208 205 209 185 204 212 222 220 209
185 123 196 195 192 203 213 212 211 226 229 211 219 254 276 293 256 261 198 156 271 274 270 267 218 188 217 207 217 190 204 196 188 200 205 189 197 211 166 172 179 189 202 229 211 173 169 183 178 189 215 229 246 266 141 122 274 253 269 270 260 253 272 271 201 223 217 216 236 246 215 234 215 192 213 223 206 196 211 207 219 211 198 206 208 216 217